RH
13 12 11 10 6 5 7 7 11 21 28 32 35 36 37 37 36 33 29 26 24 25 27 28 26 23 24 23 22 23 24 27 29 29 33 37 36 38 38 39 41 39 39 37 36 35 35 35 34 33 31 30 26 24 26 27 25 21 16 11 8 7 8 10 12 14 17 20 25 30 37 48 45 51 56 54 66 56 52 61 50 47 49 47 45 43 44 45 44 47 49 53 56 55 55 56 58
13 12 12 11 8 6 7 6 12 23 28 32 35 35 35 35 34 32 29 26 26 29 30 30 29 25 27 26 24 23 22 24 27 31 34 34 37 40 41 42 42 42 42 39 39 37 37 35 33 31 29 30 28 27 27 28 29 27 23 16 10 7 8 8 10 13 16 18 22 29 34 40 44 52 52 49 60 55 54 64 58 52 55 60 59 51 45 46 48 50 52 55 57 55 54 55 59
13 13 12 11 10 8 7 6 13 23 27 32 36 35 34 34 32 30 28 28 30 32 32 32 31 28 29 28 26 23 20 20 21 26 28 29 35 39 40 40 40 42 42 41 40 38 36 34 30 27 28 30 29 28 29 30 31 31 29 22 14 9 8 8 9 11 14 17 19 26 31 34 40 46 46 48 54 54 56 61 61 61 63 66 66 60 51 49 52 54 56 55 55 55 55 56 58
12 12 11 11 11 9 8 9 16 22 25 34 38 36 35 33 31 29 29 31 33 33 33 32 31 31 30 28 25 21 18 16 16 20 23 26 29 30 30 33 37 39 39 38 36 34 33 31 27 25 27 28 29 31 30 31 31 32 33 27 19 11 9 9 9 10 11 15 18 21 25 27 31 40 45 46 48 50 52 54 58 63 63 58 61 64 57 55 57 57 59 56 56 56 56 57 58
11 11 10 11 11 11 10 11 18 21 25 32 34 34 34 32 31 30 31 33 34 33 32 31 31 32 30 26 23 20 16 13 14 16 20 25 26 26 28 30 33 35 37 36 36 35 30 27 25 24 25 25 29 32 32 32 32 33 34 32 25 15 10 10 10 11 11 12 15 16 19 21 22 30 36 37 42 46 47 50 51 53 54 53 61 65 58 59 58 57 58 57 56 56 59 60 58
10 10 9 10 11 13 13 12 18 22 26 30 30 32 33 31 32 32 33 33 34 33 32 32 33 32 28 24 21 17 13 10 11 11 14 21 25 26 26 27 28 32 34 35 37 38 35 31 27 26 25 24 29 35 35 33 32 34 36 35 31 22 13 10 10 11 11 11 12 13 14 15 16 18 21 25 32 38 42 45 45 44 47 48 53 54 53 56 55 56 57 56 57 57 61 63 61
9 9 9 10 10 14 16 15 19 22 26 32 32 32 33 33 34 33 34 34 34 34 33 34 32 30 25 21 18 14 10 8 9 9 11 15 18 21 22 24 26 30 34 34 35 36 37 38 37 37 34 32 34 38 37 31 27 30 36 39 37 31 20 12 11 11 12 11 12 12 12 12 13 14 15 17 19 24 30 34 37 39 41 44 49 47 47 52 54 57 57 57 58 59 61 61 61
9 8 9 9 9 14 18 19 22 24 27 34 35 34 35 35 35 35 34 32 32 32 31 31 28 26 22 17 15 11 8 7 8 9 10 11 13 15 17 19 22 28 33 35 35 35 36 39 43 45 44 43 42 42 38 30 23 24 34 41 41 38 29 19 13 12 12 12 12 12 12 11 11 13 13 15 15 16 18 20 24 34 42 44 47 45 43 48 49 54 56 56 56 56 60 61 60
9 8 9 8 8 13 19 23 26 28 30 34 35 36 37 37 35 34 33 31 31 30 27 26 22 20 16 12 11 8 7 8 9 9 9 10 11 12 13 15 21 29 34 36 38 39 39 41 45 47 48 48 48 47 43 36 27 23 31 42 44 42 38 30 19 14 12 12 13 13 12 12 11 11 12 12 13 14 15 15 16 27 38 36 38 47 46 41 46 55 54 52 55 57 60 64 65
9 9 9 8 10 14 18 24 29 31 34 36 38 39 38 37 35 31 31 31 30 28 24 20 16 12 10 8 7 6 7 8 8 8 8 9 10 11 12 13 17 23 28 33 37 39 42 45 48 50 52 53 52 51 47 41 35 28 30 42 47 45 43 40 32 22 16 14 13 14 14 13 12 11 11 11 11 12 13 14 14 16 23 25 30 49 51 39 49 65 64 58 60 65 66 66 66
10 9 9 8 10 14 19 26 29 31 33 36 36 36 35 32 31 30 31 30 26 22 17 12 8 7 6 6 6 6 7 6 6 7 7 7 8 8 8 9 10 12 15 21 27 30 35 40 44 46 50 53 54 52 48 42 38 35 35 42 48 49 48 46 43 36 26 19 16 15 15 14 14 13 12 11 11 11 11 11 13 11 13 16 22 46 55 47 62 76 74 63 59 67 68 66 62
10 9 9 9 8 12 18 24 25 25 29 33 32 31 29 28 28 27 25 20 14 11 7 5 5 4 4 5 5 6 6 6 6 6 6 7 7 7 7 7 7 8 10 12 16 20 24 28 31 34 38 41 43 43 42 38 35 37 39 43 47 49 50 49 48 47 42 33 25 18 16 16 15 15 14 13 12 10 11 10 11 11 10 12 19 38 46 48 68 74 67 63 63 71 68 58 51
10 8 8 9 9 10 14 20 23 25 31 35 34 30 26 26 23 17 11 7 5 4 3 4 4 4 4 5 6 6 7 7 7 7 7 7 7 7 7 7 8 8 9 10 11 14 16 20 23 27 31 33 33 32 30 29 28 29 34 39 45 48 49 51 50 50 50 47 40 30 22 19 17 17 16 15 15 12 11 11 10 11 10 11 15 26 38 48 60 63 61 61 61 64 60 45 45
8 8 7 8 10 12 15 21 26 30 34 33 30 27 22 18 12 6 4 4 3 3 3 3 3 5 5 5 6 7 8 8 8 8 8 8 8 8 8 8 8 9 9 10 10 10 11 14 17 20 25 28 28 27 24 22 21 21 24 29 36 43 47 49 51 51 50 50 50 45 36 27 21 19 18 17 16 15 13 12 11 11 10 10 11 16 29 37 44 50 48 51 55 56 56 49 58
7 7 6 7 12 17 21 24 26 29 29 23 18 16 12 7 4 3 3 3 3 3 4 4 4 6 6 5 7 7 7 8 7 8 8 8 8 9 9 9 9 10 10 10 10 10 10 10 12 14 16 18 19 19 19 18 17 17 20 22 25 32 39 44 49 52 50 48 49 51 49 41 32 24 21 20 18 17 16 15 13 12 11 10 11 11 15 22 32 36 31 50 68 61 66 65 57
6 6 4 6 12 16 16 15 15 16 15 10 7 5 4 3 3 4 3 3 4 4 5 6 6 6 6 6 7 7 7 7 7 7 8 8 9 9 10 11 12 12 12 12 11 11 11 11 12 12 13 14 14 14 15 15 16 16 18 21 22 23 27 35 45 50 50 46 44 47 51 51 45 34 26 24 22 20 18 17 15 14 13 11 11 10 11 14 19 21 22 48 61 54 66 63 40
6 4 4 5 8 8 6 6 6 6 5 4 3 3 3 3 2 3 3 4 5 5 5 6 7 6 6 7 7 8 8 8 8 8 8 9 10 10 11 12 13 13 13 12 12 13 13 14 14 14 14 14 15 15 16 16 16 17 17 19 22 22 22 28 39 48 48 44 41 42 47 52 52 44 34 28 26 24 20 18 17 16 15 14 13 11 11 10 11 14 19 31 37 42 51 42 31
6 4 4 4 5 5 4 4 4 4 4 4 3 3 2 2 2 3 3 4 5 5 5 6 7 6 7 8 8 7 8 8 9 9 10 10 10 11 12 13 13 13 13 13 13 13 13 14 13 14 14 15 16 17 18 17 17 16 16 17 19 22 23 25 32 42 46 43 40 41 45 50 53 50 43 36 30 27 24 20 18 18 17 15 15 14 13 12 11 12 14 18 20 25 28 24 23
5 4 4 4 5 5 4 4 4 4 3 3 3 2 2 2 2 3 3 4 4 5 5 6 7 8 9 9 8 7 7 8 8 9 9 10 11 11 12 12 12 12 13 13 14 14 14 14 13 13 13 14 16 17 17 16 16 15 15 15 15 18 20 23 26 33 43 44 41 42 47 54 58 54 47 42 35 31 28 24 20 18 18 17 16 15 15 14 14 13 13 14 13 13 14 15 15
6 5 4 4 5 4 4 4 4 3 3 3 3 2 2 2 2 2 3 3 3 4 4 5 6 7 8 7 7 7 7 7 7 8 9 9 10 10 10 10 11 11 11 12 13 14 14 14 14 14 14 14 15 15 16 15 14 14 14 15 14 14 16 20 21 26 37 43 41 45 55 63 64 58 48 42 39 36 32 28 23 19 19 18 17 16 16 15 15 15 14 14 14 14 13 13 12
8 6 4 4 4 4 4 4 3 3 3 3 3 3 3 3 2 2 3 3 3 4 4 4 5 5 6 6 6 5 5 5 6 6 7 8 8 8 9 9 9 9 10 11 11 12 13 14 14 15 15 15 15 15 15 15 14 13 14 15 16 15 15 17 20 22 30 43 48 54 65 68 64 57 49 40 38 40 36 32 27 22 20 19 18 17 17 17 16 16 16 16 16 15 15 15 15
9 7 6 5 5 4 4 4 4 4 3 3 3 3 3 3 3 3 3 3 3 4 4 4 4 4 4 4 4 4 4 4 4 5 5 6 6 7 8 8 9 9 10 10 10 10 11 13 14 15 16 16 17 17 18 17 16 15 14 15 17 20 20 21 23 25 32 46 54 56 61 61 57 52 47 41 37 40 40 36 31 25 21 19 19 18 18 18 18 17 17 17 17 17 17 17 17
10 9 7 6 5 5 4 5 4 4 4 3 3 3 3 3 3 3 3 2 3 3 3 4 4 4 4 4 3 3 3 4 4 4 5 5 6 7 7 8 8 8 9 9 9 10 10 11 13 15 16 18 18 19 20 20 19 18 17 16 17 21 26 30 31 32 34 41 47 48 48 48 48 45 42 40 37 39 42 40 35 30 23 20 19 19 19 18 19 19 19 19 19 18 18 17 17
12 11 9 7 6 6 5 5 4 4 4 4 4 4 3 3 3 3 3 2 3 3 3 4 5 5 4 4 4 4 4 3 3 4 4 5 6 7 7 7 7 7 8 9 9 9 9 9 10 12 14 15 17 18 19 20 20 20 20 19 19 20 26 34 38 37 36 37 41 43 42 41 40 39 37 38 38 39 42 43 39 34 27 22 21 20 20 20 20 20 20 20 19 19 18 18 17
13 12 10 8 7 7 6 6 5 4 4 4 4 4 3 3 3 3 2 2 2 3 3 3 4 5 5 5 5 4 4 4 4 4 5 5 5 6 6 7 7 7 8 9 9 9 9 9 9 10 11 12 13 14 16 17 19 20 20 19 20 20 22 29 35 38 38 37 38 40 41 40 37 36 35 36 38 39 41 44 41 37 33 27 23 21 20 20 20 20 20 20 20 19 18 18 17
13 12 11 10 8 7 7 6 6 5 5 5 4 4 4 3 3 3 2 2 2 3 3 3 3 4 4 5 5 4 4 4 4 4 5 5 5 6 7 7 7 8 9 9 10 10 9 9 9 9 9 10 10 11 12 13 15 17 19 19 20 20 20 23 27 33 37 36 36 37 38 39 37 36 36 36 39 41 41 43 43 39 37 33 27 25 23 22 22 22 22 21 21 20 20 19 18
13 13 12 11 9 8 7 7 6 6 6 5 5 5 4 3 3 3 2 2 2 2 3 2 2 3 4 4 4 4 5 4 4 5 5 5 6 7 7 7 7 7 8 8 9 9 9 9 9 9 9 9 9 9 9 10 10 12 14 17 19 20 20 20 22 27 32 36 36 34 34 35 36 36 36 36 38 42 43 42 43 41 38 36 33 29 26 25 25 25 24 22 22 22 21 20 19
14 13 12 11 10 9 8 8 7 8 7 6 5 5 4 4 3 3 3 2 2 2 3 3 3 3 3 4 4 4 4 4 5 5 6 6 6 7 7 6 6 5 6 6 7 7 8 8 8 8 7 7 8 8 8 8 8 9 9 12 15 19 21 20 20 22 26 32 34 34 35 33 31 31 33 33 34 40 44 44 43 43 40 39 37 34 29 28 27 26 25 24 23 23 21 21 20
14 14 13 13 13 11 10 9 8 9 9 7 6 5 4 4 4 3 3 3 3 3 3 3 3 3 3 3 3 4 5 4 5 5 6 6 7 6 6 6 5 5 5 5 5 6 7 7 8 7 7 7 7 6 6 6 7 7 8 9 11 14 19 21 21 20 21 25 30 33 37 42 42 37 31 31 32 35 42 45 44 44 43 41 40 37 32 30 29 27 26 24 23 23 22 21 20
14 15 15 15 15 14 13 12 11 12 11 9 8 7 5 4 4 4 3 4 3 3 4 4 4 3 3 3 3 4 5 5 4 5 5 6 7 6 6 6 6 5 5 6 5 6 6 6 7 7 7 7 7 7 6 6 6 6 7 8 9 10 14 18 21 22 21 21 25 29 37 51 60 50 33 28 31 33 38 43 44 44 44 44 43 40 36 32 30 28 26 25 24 23 23 22 21
15 15 15 16 17 17 16 15 14 13 12 9 9 9 5 4 6 5 4 4 4 4 4 4 4 4 4 3 3 4 5 5 4 5 5 5 6 6 7 6 6 6 6 7 6 6 6 6 6 6 7 7 7 8 7 7 7 6 7 7 8 9 10 13 18 22 22 21 22 29 37 44 54 52 34 27 32 32 36 42 43 43 44 46 47 44 39 35 31 29 26 24 24 24 25 24 22
16 16 16 17 19 19 19 18 15 14 12 10 10 9 6 4 7 7 6 5 5 5 5 6 5 5 5 3 3 3 4 4 4 4 4 5 5 6 7 6 7 7 7 7 8 8 8 7 7 6 6 6 7 7 8 9 8 8 7 7 8 8 9 11 14 19 22 22 24 40 58 62 67 64 41 27 34 35 35 41 43 42 44 47 51 48 42 37 33 29 27 25 24 24 26 26 25
19 17 17 17 19 21 21 20 18 16 14 12 11 10 7 5 6 6 7 7 7 5 5 7 6 5 5 5 3 3 4 4 4 4 4 5 5 6 6 7 7 7 8 8 9 10 10 10 9 9 8 7 7 6 7 9 9 9 8 8 8 8 9 9 11 14 19 23 29 47 65 69 75 75 52 30 31 36 36 40 43 43 44 48 53 51 44 39 34 30 27 25 24 24 25 27 26
22 19 18 17 19 22 22 21 21 20 16 14 12 11 8 6 6 6 6 7 7 7 6 6 7 6 5 5 4 4 4 4 4 4 5 5 5 6 6 7 7 8 9 9 11 13 14 14 13 13 12 11 9 7 6 8 9 10 9 9 8 8 9 9 10 11 15 21 31 45 56 62 74 84 73 44 28 32 35 38 43 44 45 52 57 54 46 40 34 30 28 26 25 24 24 26 26
24 22 21 20 20 22 21 21 23 22 18 14 12 10 8 6 6 5 6 7 7 6 7 6 6 5 6 6 5 4 4 4 4 5 5 6 6 7 7 8 8 8 10 11 14 16 17 17 16 16 16 15 14 11 8 6 7 9 10 9 9 8 9 9 10 10 12 15 22 32 41 52 64 70 66 46 26 27 32 35 41 45 48 56 61 57 49 43 36 31 29 27 26 25 24 25 25
28 25 23 24 23 21 22 24 25 24 20 14 12 10 8 7 6 5 6 7 7 6 7 6 6 6 6 6 5 4 4 4 4 5 6 7 7 7 8 8 9 9 11 13 16 18 17 17 17 17 18 19 18 16 11 7 6 8 10 10 9 9 8 9 10 10 11 12 14 19 23 30 36 38 41 37 30 29 31 32 37 45 52 60 65 60 50 44 38 34 31 29 27 26 24 23 22
33 29 25 27 26 22 23 27 28 27 22 13 11 11 8 6 5 6 6 7 7 7 7 6 6 6 6 6 6 4 5 4 5 6 7 8 8 8 8 9 10 10 12 15 17 18 17 17 19 19 19 20 23 21 16 10 7 7 9 10 10 9 9 8 9 9 10 11 12 13 18 22 25 30 34 32 32 33 30 29 33 42 52 64 74 68 52 44 40 36 33 30 28 27 25 23 22
35 32 28 27 27 24 24 30 29 25 22 15 12 11 7 6 6 6 6 7 7 7 7 7 6 6 6 6 6 5 5 5 5 7 8 9 9 9 9 10 10 12 14 16 17 17 18 20 22 22 21 22 25 26 22 14 9 7 8 9 10 10 9 9 8 8 9 10 11 11 13 18 20 27 33 30 30 33 30 29 31 40 52 67 82 79 58 44 40 38 35 33 31 28 25 23 22
36 34 31 28 28 27 28 31 29 25 22 17 14 13 7 5 6 6 7 7 8 8 7 7 7 6 6 6 6 6 6 6 7 9 10 9 9 10 10 11 12 13 15 16 17 19 22 24 25 25 25 25 27 29 27 20 12 9 9 9 10 10 10 10 9 9 8 8 9 10 11 12 14 20 27 29 31 34 33 32 33 42 55 66 79 83 68 49 41 39 36 35 32 29 26 24 23
38 35 34 32 31 34 36 34 31 29 28 24 19 16 9 6 6 5 7 8 8 9 7 7 7 6 7 6 6 7 7 7 8 10 11 10 10 11 11 12 13 14 16 17 19 23 25 27 27 27 28 29 30 31 30 26 17 11 9 10 11 11 11 10 10 10 10 9 8 9 9 10 12 15 21 25 29 33 34 33 35 43 55 65 72 77 72 58 47 41 38 36 33 30 27 24 23
41 40 39 36 35 40 44 40 36 32 31 28 24 21 11 5 7 5 6 9 8 8 7 6 7 7 7 7 6 8 8 8 9 11 12 12 12 12 12 13 14 15 16 17 20 24 26 28 29 30 30 31 32 32 33 30 24 16 11 10 11 12 13 12 12 11 10 10 10 9 9 10 12 13 16 19 23 26 29 31 34 39 47 59 67 71 71 67 57 47 40 37 35 31 28 26 24
46 44 43 42 42 45 47 46 43 38 34 25 26 39 27 5 5 7 5 9 9 8 9 7 7 7 6 6 7 8 9 8 10 12 12 13 14 14 14 15 17 17 16 17 21 23 26 28 30 32 34 34 35 35 35 35 31 23 15 11 11 12 14 14 13 13 12 12 11 10 10 10 11 12 13 15 17 20 25 29 34 37 40 47 56 64 69 70 65 56 46 40 37 33 29 27 24
53 49 47 50 51 51 50 48 46 44 39 27 29 50 45 14 3 7 7 8 9 9 9 8 7 7 6 7 8 9 9 10 10 11 13 14 15 16 17 18 19 17 17 18 21 24 26 29 30 33 36 37 39 39 39 39 37 31 22 14 11 12 13 15 15 14 14 13 12 11 10 10 11 12 13 13 15 17 23 28 32 36 39 41 46 55 62 67 67 63 55 46 40 34 30 27 25
59 53 52 56 57 57 52 47 49 49 44 33 26 39 50 31 8 5 8 7 8 8 8 8 7 7 8 8 9 8 9 10 10 11 12 14 16 17 19 21 20 17 17 19 22 25 28 29 31 32 35 38 40 41 41 42 41 38 31 21 14 12 12 14 15 16 16 15 14 13 11 11 11 11 13 14 15 16 19 24 29 34 38 41 43 48 57 62 64 65 62 53 44 38 32 29 26
59 54 56 61 63 62 52 48 52 54 54 44 27 28 47 40 11 4 10 7 8 9 8 9 8 8 9 8 9 9 9 10 10 10 12 14 15 17 20 21 20 18 19 21 23 26 29 31 32 32 34 37 40 42 43 43 43 41 38 29 19 13 13 14 15 16 17 17 16 15 13 12 11 11 12 13 16 17 18 20 24 30 35 39 42 45 52 57 61 66 67 60 50 42 36 31 27
64 60 62 66 69 65 57 59 58 62 70 55 31 28 42 39 14 4 10 7 8 10 8 10 9 8 9 8 9 9 9 10 10 11 13 15 16 17 19 19 19 20 21 23 24 27 30 31 33 34 34 37 40 43 44 45 44 42 41 37 25 16 14 15 16 16 17 17 17 16 14 13 12 12 12 13 14 16 18 20 22 26 31 36 41 44 48 52 59 67 71 68 58 47 39 34 29
68 67 69 71 75 71 70 74 66 72 78 51 28 28 36 40 22 6 9 9 9 9 9 10 9 9 9 9 10 10 11 12 12 15 17 18 19 18 20 20 21 22 23 25 26 27 30 31 34 36 35 36 39 43 45 46 46 43 42 40 32 21 15 16 18 18 18 18 18 18 16 15 13 13 13 13 15 15 17 20 21 24 27 32 38 43 48 50 57 69 75 74 65 53 43 37 32
66 72 74 73 74 69 74 84 79 83 76 45 33 35 41 48 27 7 10 10 8 10 10 11 10 10 10 10 13 13 14 15 17 21 22 23 23 21 22 22 22 24 24 26 27 28 30 31 34 36 37 37 39 43 45 47 48 45 42 41 36 26 17 16 18 20 20 19 20 19 18 17 15 14 14 14 15 17 18 20 21 23 25 29 34 41 49 53 59 71 80 81 73 58 45 40 36
69 76 78 79 76 68 77 87 84 82 64 39 38 43 52 53 26 9 12 9 9 11 10 12 10 10 11 12 15 16 18 20 21 24 26 27 27 25 25 25 25 26 26 26 27 29 30 31 33 35 38 39 39 43 45 47 49 47 42 41 39 30 20 16 18 20 21 20 21 21 20 19 18 17 16 16 16 17 19 21 23 24 26 28 32 39 50 59 66 74 80 84 80 64 48 41 39
66 70 72 79 81 87 99 94 78 70 51 38 45 52 57 48 22 12 12 8 11 12 11 12 11 12 14 13 16 18 20 22 22 25 27 28 29 28 28 28 28 29 29 29 29 30 30 31 33 34 37 40 39 43 46 47 49 49 46 42 40 34 23 17 18 19 22 22 22 22 21 21 20 19 19 18 18 18 20 23 25 28 29 30 33 39 48 60 70 77 81 85 84 72 54 43 42
64 63 68 71 66 71 84 77 61 52 43 42 50 53 49 35 19 14 12 9 11 12 13 13 12 14 15 15 18 20 22 24 25 26 29 30 31 31 31 31 32 32 33 32 31 31 32 32 34 36 38 40 40 43 47 48 49 51 50 45 42 37 27 19 18 19 22 24 25 24 24 23 22 22 22 20 20 21 22 24 27 31 33 35 36 40 47 57 68 77 84 87 87 79 62 48 45
76 75 79 78 61 52 58 59 50 47 56 62 54 43 35 26 20 17 15 14 12 12 14 14 14 15 15 17 20 22 24 25 25 28 30 33 34 34 33 32 33 34 34 34 33 33 34 35 36 38 40 41 42 45 48 50 50 51 52 50 46 42 34 24 20 21 22 24 26 26 25 25 24 24 24 23 23 23 25 27 29 32 36 38 40 42 48 56 66 77 87 93 92 86 72 55 48
79 80 78 72 62 59 63 62 56 59 73 72 52 39 35 29 26 21 17 16 14 13 15 14 16 16 17 21 23 25 28 27 27 29 32 35 36 36 35 34 34 35 36 37 37 36 37 38 39 41 42 43 45 48 51 52 52 52 54 54 49 45 41 31 23 22 23 24 26 27 26 26 26 26 26 25 24 24 26 28 31 33 37 40 41 44 47 52 60 69 81 94 98 93 82 66 54
75 77 70 65 67 72 69 66 71 82 88 75 53 45 43 37 31 23 17 16 14 13 14 15 17 17 20 25 26 29 31 30 30 29 32 36 37 37 37 37 37 39 41 41 41 40 41 41 42 44 45 47 49 51 53 54 54 54 56 56 53 48 45 39 29 23 24 26 26 27 27 27 27 28 28 27 26 25 26 29 32 34 37 40 42 45 47 50 55 61 69 82 95 99 94 81 67
72 73 66 64 70 74 70 70 78 87 92 83 61 50 50 43 33 25 19 17 15 14 15 17 19 21 23 25 27 29 30 31 33 32 33 37 40 41 41 41 42 43 45 45 44 44 45 46 47 49 50 52 53 53 55 56 56 56 58 59 56 51 48 44 35 26 25 27 28 28 28 28 29 30 30 29 27 25 26 28 32 35 38 40 43 45 47 49 53 57 61 69 83 96 101 94 84
74 81 80 72 67 67 67 69 66 67 81 85 68 58 56 45 34 28 22 17 16 15 15 19 22 23 25 25 26 27 28 30 34 36 37 39 42 45 44 45 46 47 48 48 47 47 48 50 52 53 54 54 55 55 56 58 58 58 60 62 59 54 51 50 41 29 26 28 28 29 30 30 31 32 32 31 29 27 25 27 30 35 39 42 44 46 48 51 53 55 58 63 72 86 98 100 96
65 77 83 78 73 72 70 69 62 59 77 91 86 71 53 40 35 29 21 19 17 17 17 20 23 24 25 25 26 27 28 29 33 37 41 43 45 47 47 48 49 49 51 50 50 49 50 52 54 56 57 56 57 59 59 61 60 59 62 64 62 57 54 54 47 34 28 29 30 31 32 33 34 35 35 33 31 28 26 26 28 34 40 43 47 50 52 54 56 57 60 64 69 79 93 99 100
58 60 60 57 61 67 73 77 68 60 66 76 82 75 51 40 41 32 26 23 18 18 20 20 23 25 25 25 27 28 30 31 35 39 42 45 47 48 48 49 49 49 51 52 52 54 53 54 55 58 60 59 60 61 62 64 63 61 65 67 64 61 59 58 51 38 31 31 32 33 34 35 36 37 37 35 32 29 27 26 28 34 41 45 48 53 56 59 61 62 64 69 75 84 94 99 100
Wind_Speed
14 11 9 7 5 3 2 3 1 5 7 12 13 10 9 7 5 3 4 5 7 11 13 14 14 15 16 17 17 15 14 12 11 10 8 9 12 12 12 13 13 15 16 17 18 18 19 19 19 19 18 18 18 17 18 18 18 18 17 16 16 15 15 16 16 16 17 17 17 17 16 17 16 15 17 18 18 20 20 20 21 22 23 24 24 24 25 25 25 25 24 22 20 18 16 16 15
13 11 8 6 4 3 2 3 4 8 8 12 12 9 7 4 1 2 3 5 9 11 13 13 13 12 13 15 14 12 13 12 10 9 9 11 12 13 14 14 15 16 17 18 18 19 19 19 19 18 18 17 16 17 17 17 18 18 18 17 17 16 16 16 16 16 18 18 19 19 19 19 18 18 19 19 20 21 21 20 21 22 23 24 23 23 25 26 25 25 23 22 21 18 18 18 17
12 10 8 6 5 2 2 3 5 10 10 12 10 7 5 2 1 2 4 7 9 10 12 13 12 10 11 13 12 12 13 13 13 11 12 13 13 14 15 16 17 17 18 19 19 19 20 19 19 18 16 15 15 15 16 17 17 17 17 17 17 16 16 16 16 16 17 18 19 20 20 21 21 21 20 19 21 22 22 22 22 23 22 23 23 23 24 25 25 24 23 23 22 21 21 21 19
12 10 9 8 5 2 2 2 6 10 10 11 10 6 3 1 1 3 5 7 8 10 11 12 12 11 12 13 13 14 16 16 16 14 13 14 15 16 17 17 17 18 19 20 21 21 21 20 19 17 15 14 14 14 15 16 16 16 17 17 16 16 16 16 16 16 16 17 19 20 21 22 22 23 23 22 23 23 23 24 24 24 23 23 25 24 23 24 25 24 24 24 24 24 24 22 20
13 11 11 10 6 2 2 2 7 8 9 10 8 6 2 1 2 3 4 6 7 10 11 13 12 12 14 16 16 17 18 18 17 16 15 15 16 17 18 18 18 19 19 19 20 20 20 20 19 17 16 15 14 14 14 15 15 15 16 16 16 15 15 15 15 15 15 16 17 19 20 22 23 24 25 25 25 25 25 25 25 26 25 25 25 25 24 25 25 25 26 26 26 26 25 24 23
14 13 12 11 7 3 1 3 6 7 9 9 7 5 2 2 3 4 5 7 9 11 13 14 14 15 17 17 18 19 20 18 18 18 16 15 16 18 19 19 19 20 20 19 17 17 17 18 18 18 17 16 15 14 14 14 14 14 15 16 15 14 14 14 14 14 14 14 15 16 18 20 21 23 25 26 27 28 27 27 27 27 27 27 27 28 27 26 27 28 28 27 27 27 26 24 24
14 13 13 10 7 4 1 3 6 7 8 7 5 4 2 3 4 6 8 9 11 13 14 15 17 18 19 18 19 20 21 19 19 19 18 17 19 20 20 19 20 20 19 19 18 16 16 16 16 17 17 16 15 15 15 15 15 15 14 15 15 14 13 13 13 13 13 14 14 14 16 17 19 20 22 24 26 27 28 29 29 29 29 28 28 29 28 28 29 29 29 28 28 28 27 26 25
14 12 12 10 7 3 2 4 6 6 7 6 4 4 3 4 6 7 10 13 13 15 16 17 19 21 20 20 20 21 22 21 21 20 19 19 21 21 20 20 20 20 19 19 19 18 17 17 16 15 15 15 16 16 17 17 18 16 15 14 14 13 12 12 12 12 13 13 13 13 14 15 17 18 20 22 23 25 27 29 29 29 29 29 28 29 29 29 29 29 29 29 28 28 28 28 27
13 12 11 9 7 3 2 3 5 6 6 5 4 4 4 5 7 9 12 14 16 16 18 19 21 22 21 20 20 21 22 21 21 21 21 21 22 21 20 21 20 20 19 19 19 18 18 18 17 16 15 16 17 18 19 20 20 18 16 15 13 12 11 11 11 12 12 12 13 13 13 14 15 17 18 20 21 23 24 26 27 28 28 29 28 28 28 28 28 28 28 29 29 29 29 28 28
12 11 10 7 5 2 1 3 4 5 4 3 3 4 5 7 10 12 12 14 16 17 19 21 22 22 21 19 19 20 22 21 21 21 22 22 23 22 21 21 21 21 21 21 20 19 18 17 17 17 18 18 19 20 22 22 21 20 18 16 15 13 11 10 11 11 12 12 12 13 13 13 14 15 16 18 20 21 23 24 25 27 28 28 27 26 26 27 27 27 28 28 30 30 29 29 28
12 11 9 7 3 1 3 3 4 4 3 4 5 6 8 9 11 13 13 15 17 18 19 21 21 21 19 17 18 20 22 22 22 21 22 22 23 23 23 22 22 22 22 23 22 22 21 20 19 19 19 20 21 22 23 24 23 21 19 18 17 15 13 11 11 11 11 12 12 13 13 13 14 14 15 16 17 19 21 23 24 25 27 26 25 25 24 25 26 26 27 28 30 31 30 29 28
12 10 9 6 2 2 4 4 4 3 3 4 6 7 9 10 12 13 14 15 16 17 18 19 19 19 18 16 17 18 20 22 22 22 22 23 23 24 24 24 24 24 23 23 22 22 23 23 22 22 22 23 23 23 24 25 25 24 22 20 20 19 16 14 12 12 11 11 12 12 13 14 14 14 15 15 15 17 19 21 23 24 25 25 24 24 23 24 24 24 26 27 28 28 30 30 29
11 9 8 4 2 3 4 4 3 2 2 3 5 7 9 11 13 14 14 15 16 16 17 18 18 18 18 15 15 17 19 21 22 23 23 24 25 25 26 26 26 26 26 25 24 23 23 23 24 24 24 24 25 25 25 26 26 26 25 24 22 21 20 18 15 14 13 12 12 12 13 14 14 15 15 15 16 16 16 18 20 22 23 24 24 23 22 24 25 25 27 27 25 28 31 30 29
12 11 8 3 2 3 3 2 2 2 3 4 6 7 10 11 11 13 13 15 16 16 17 18 18 18 18 16 15 16 17 19 21 22 23 23 25 25 26 26 27 27 27 27 26 25 24 23 24 24 25 25 26 27 27 27 27 27 27 26 25 24 23 22 19 17 16 15 14 13 13 14 15 15 15 16 16 17 16 16 17 19 20 22 23 23 22 24 25 26 26 24 25 28 29 27 27
13 12 8 3 1 3 1 1 2 4 4 6 7 6 8 8 9 11 13 14 15 16 16 17 17 17 18 18 17 16 16 17 18 19 19 20 21 23 24 25 25 26 27 26 26 25 25 24 25 25 25 26 27 28 28 28 28 27 27 28 27 26 25 24 23 21 19 17 16 16 14 14 15 15 16 16 16 17 18 17 16 17 18 19 21 21 22 23 25 25 23 21 23 26 25 26 28
14 11 7 4 1 1 0 1 1 3 4 6 5 3 4 6 7 9 12 13 14 16 16 17 17 17 17 18 17 16 16 16 16 17 17 18 19 20 21 22 23 24 24 24 24 24 24 24 24 25 25 25 25 26 28 28 28 28 28 28 28 28 27 26 26 25 23 21 20 18 17 16 16 16 16 16 16 17 18 18 18 17 17 18 19 20 20 22 23 23 23 22 24 24 23 26 28
13 9 7 5 3 2 2 1 1 1 2 3 2 3 3 4 6 8 12 14 14 16 16 16 17 16 15 15 16 15 15 15 15 16 17 17 18 18 18 19 19 20 20 19 19 20 20 21 21 21 21 22 22 23 25 26 27 28 29 29 29 28 27 27 27 27 26 25 23 21 19 18 18 18 17 16 16 16 17 18 18 18 17 17 18 18 19 20 21 21 22 21 21 22 23 25 25
12 9 6 5 4 3 3 2 2 3 2 2 1 2 3 4 5 6 10 13 13 14 15 14 15 16 14 14 14 14 14 14 15 15 15 16 16 16 16 16 17 17 17 16 16 17 17 17 18 17 17 17 17 17 19 20 22 24 26 28 29 28 27 27 27 28 28 28 26 24 22 20 21 20 18 17 17 17 17 17 17 18 18 18 18 18 18 19 20 20 20 20 19 20 21 23 23
10 8 6 4 3 3 3 3 3 4 4 2 0 3 4 5 6 6 7 11 10 9 10 10 10 10 10 10 11 11 11 12 12 13 14 15 16 16 16 17 18 18 18 17 17 17 17 17 17 16 15 15 14 14 15 16 18 19 20 22 26 27 27 27 26 27 28 28 27 26 24 22 22 22 20 18 18 18 18 17 17 18 19 19 19 18 18 18 18 18 18 18 18 18 19 21 22
10 8 5 3 2 3 3 2 3 4 3 1 1 3 5 6 8 9 8 9 10 7 6 6 5 5 5 7 7 8 9 10 12 13 14 16 17 18 19 19 19 20 20 20 19 19 19 18 18 17 17 16 15 15 15 15 16 17 17 18 20 23 25 26 27 26 27 27 27 26 25 24 23 23 22 20 19 20 19 18 17 18 19 19 19 18 17 16 17 17 17 18 18 18 19 19 20
11 9 7 4 3 1 2 1 2 2 1 1 2 4 7 7 8 11 10 7 8 8 5 3 2 2 2 3 5 6 8 10 11 13 14 16 17 19 20 20 20 20 20 20 19 19 18 18 18 18 18 18 17 17 16 16 16 16 16 16 16 18 21 24 26 26 26 25 25 25 25 25 24 24 23 21 20 20 20 19 18 18 19 19 19 19 17 16 17 17 17 17 17 18 19 19 20
11 10 9 6 4 2 1 1 1 1 2 3 4 6 7 9 9 11 11 7 6 7 5 3 2 2 3 4 6 8 10 11 12 13 14 15 17 18 18 19 19 20 19 19 19 19 18 18 18 18 18 19 19 19 18 17 17 17 17 16 15 15 17 21 24 25 25 24 25 26 27 27 27 26 24 23 22 21 21 20 19 18 19 19 19 19 18 17 17 18 17 17 17 19 20 20 20
11 11 10 8 7 5 2 3 3 3 4 5 6 7 9 9 9 10 11 8 7 7 6 4 4 4 6 7 8 10 11 12 13 14 14 15 16 17 17 17 18 18 19 19 20 20 19 18 17 17 17 17 18 18 18 18 18 18 18 18 17 15 15 18 21 23 25 25 26 27 28 29 28 28 26 24 23 23 22 21 20 19 19 19 19 19 19 18 18 18 18 18 19 20 21 21 22
13 12 11 10 9 8 5 4 5 5 6 6 7 9 11 10 8 9 10 8 7 7 7 6 6 6 6 8 9 10 11 11 12 13 14 15 16 16 17 17 17 17 18 18 19 20 20 19 18 17 16 16 17 17 18 18 18 18 18 19 19 18 15 16 18 21 21 23 25 26 28 28 29 29 27 25 24 24 23 22 21 19 19 19 20 20 20 20 20 19 19 19 21 22 22 22 23
13 12 11 11 11 10 8 7 7 7 7 7 9 10 12 11 9 9 9 8 8 8 9 9 8 8 7 8 8 9 9 9 10 11 12 13 14 16 18 18 18 17 17 17 18 19 19 19 19 18 18 17 17 17 18 18 18 18 18 18 18 19 18 17 17 19 19 20 22 25 26 27 28 28 27 26 25 25 24 23 22 21 20 19 20 20 21 21 21 20 20 21 22 23 23 24 24
14 13 13 13 13 12 10 10 9 8 8 9 10 11 13 12 11 11 10 8 8 9 12 11 10 8 7 8 7 8 8 7 7 8 10 12 14 16 17 18 18 18 17 17 17 18 18 18 19 19 19 19 19 18 19 19 19 18 18 18 18 18 19 19 18 18 17 18 21 24 26 27 27 27 26 25 25 25 25 24 23 22 21 20 20 21 21 22 22 21 21 22 23 23 24 24 25
14 14 14 14 14 13 12 12 12 10 10 11 11 12 13 14 13 13 12 11 11 11 13 14 13 10 8 7 6 7 7 6 6 6 9 11 13 15 15 16 17 17 17 17 16 17 17 18 18 19 19 20 21 20 20 20 20 20 19 18 18 18 18 19 19 18 17 17 20 22 25 27 28 27 25 25 25 25 25 25 24 23 22 21 21 21 22 23 22 22 22 22 23 23 24 25 25
15 15 15 15 14 13 13 14 14 12 11 13 13 14 15 15 15 14 13 14 15 14 14 15 15 13 10 8 6 6 6 6 6 6 8 10 11 12 13 14 15 15 16 16 16 17 17 18 18 19 19 20 21 21 21 21 21 21 21 19 18 18 18 19 19 19 18 19 20 21 23 25 27 28 27 26 25 25 25 26 25 24 24 23 22 22 22 23 23 23 22 22 22 23 24 24 24
16 16 15 16 15 14 14 15 15 13 13 14 15 16 16 16 17 15 14 15 16 16 16 16 18 17 14 11 7 5 5 6 6 7 8 9 10 12 12 13 13 14 15 15 16 18 18 18 18 18 19 20 20 21 21 21 21 21 21 21 20 19 18 19 19 20 20 21 21 21 21 22 24 26 27 27 26 25 25 25 26 25 25 24 23 22 22 23 23 23 22 22 22 23 24 24 23
17 17 17 17 17 15 13 15 16 14 14 15 15 17 15 13 15 16 16 16 16 16 17 17 18 20 18 15 11 7 6 6 7 7 8 9 10 12 13 13 13 13 14 15 17 18 18 18 18 18 19 20 21 21 21 21 21 21 21 21 21 20 19 19 19 20 21 22 22 22 21 21 23 24 26 28 27 25 25 25 26 26 26 25 24 22 22 23 23 23 22 22 22 23 23 23 23
18 18 18 18 18 16 14 15 16 16 16 16 16 18 17 11 12 17 17 16 17 17 18 18 18 19 21 19 14 11 9 7 8 8 9 10 12 13 13 13 13 14 15 16 17 17 17 18 18 19 21 22 22 22 21 20 20 20 21 21 21 21 20 20 20 20 20 20 21 19 19 20 20 22 25 26 26 25 24 24 25 26 26 25 24 23 22 22 23 22 22 21 22 22 23 23 23
18 19 19 19 19 18 16 16 18 18 18 18 17 18 19 13 12 17 18 16 17 18 19 22 21 19 21 22 18 14 11 9 9 10 10 10 12 13 13 14 14 15 16 17 17 17 17 18 18 19 20 22 23 23 22 21 20 20 20 20 20 20 20 20 20 20 20 19 18 15 14 16 16 20 24 23 24 25 24 24 24 25 26 25 24 22 22 22 22 22 21 21 22 22 23 23 23
19 19 19 19 20 20 19 18 18 20 20 20 19 19 21 16 13 16 17 16 17 19 20 23 25 22 20 22 20 16 13 11 11 12 13 11 11 12 13 14 15 17 17 17 17 18 18 18 19 19 20 21 22 24 24 22 20 19 19 19 19 19 19 19 19 20 20 19 16 13 12 13 14 17 21 21 23 25 23 23 24 24 24 24 24 22 21 22 21 21 21 21 22 22 22 23 23
19 18 18 19 20 21 21 20 19 21 22 22 22 24 25 21 16 17 18 18 19 20 21 23 26 25 22 22 22 18 15 12 13 14 14 13 11 11 12 13 15 16 17 18 19 20 20 21 21 21 21 21 21 22 23 23 21 19 18 18 18 19 19 19 19 19 19 18 16 14 13 13 15 17 20 20 22 24 24 23 22 22 22 22 23 21 20 20 20 20 20 22 22 22 23 23 23
20 18 18 19 21 22 22 22 22 23 25 25 25 27 27 24 21 20 19 20 21 20 22 24 26 26 23 22 23 20 16 14 14 15 15 14 12 10 11 13 14 15 16 17 19 20 22 23 24 24 23 23 22 21 21 21 21 20 18 17 17 17 18 19 19 19 19 18 16 15 15 15 18 21 22 23 22 23 23 22 21 20 21 21 22 21 20 20 20 20 21 22 22 22 23 23 23
22 21 21 22 23 25 23 21 23 25 26 26 25 27 28 26 23 21 20 21 23 22 24 25 25 26 25 24 24 21 17 14 14 16 14 14 12 9 10 12 13 14 15 16 17 19 22 25 26 26 26 25 25 23 22 21 20 19 18 17 16 16 17 18 18 19 19 18 17 17 16 16 18 20 21 22 21 22 23 22 20 20 20 21 21 21 20 20 20 20 21 22 22 22 23 23 23
22 22 22 23 24 25 23 21 22 24 26 27 25 26 28 26 23 21 21 22 23 23 25 25 24 26 26 25 25 21 17 14 14 15 14 13 11 9 10 11 12 13 14 16 17 19 23 25 26 27 28 28 28 26 23 21 20 18 17 17 17 16 16 17 17 18 18 18 19 19 17 17 16 17 18 18 18 20 21 22 21 20 21 21 20 20 21 20 21 20 20 21 23 23 23 23 23
21 22 22 23 24 25 23 20 21 22 24 26 25 27 28 26 23 21 22 25 24 24 25 25 24 25 25 25 24 21 17 14 14 15 13 12 10 8 9 10 11 12 14 17 19 21 24 26 28 29 29 29 30 29 26 23 21 19 17 17 17 17 17 17 17 17 18 18 19 19 18 17 16 14 16 17 17 18 19 21 21 21 22 22 21 21 21 21 21 21 21 21 23 23 23 23 23
22 22 23 24 24 24 22 19 18 19 22 26 27 29 28 24 23 21 22 23 22 23 24 23 23 24 23 24 23 20 17 15 14 14 13 12 10 8 9 10 11 12 14 17 20 23 26 28 30 30 31 31 32 32 28 24 22 20 18 17 16 17 17 18 18 18 18 18 18 19 19 18 18 16 16 17 17 19 19 20 21 21 22 24 24 24 23 23 23 22 22 22 23 23 24 24 24
20 20 22 24 23 22 21 21 19 18 22 27 28 31 29 23 21 18 16 17 18 21 23 22 22 21 21 21 20 18 16 14 14 13 13 12 11 9 9 11 12 14 15 18 21 25 27 29 31 31 32 33 33 33 31 26 23 22 20 18 17 16 17 17 18 18 18 18 18 19 19 19 19 18 18 18 17 18 19 19 19 20 23 26 27 28 27 25 25 25 24 24 23 24 24 24 25
20 21 22 23 22 20 22 24 22 21 22 24 28 30 27 22 18 13 12 16 18 20 22 20 20 19 18 19 17 14 14 15 14 13 13 13 12 11 11 13 15 16 18 20 22 26 28 30 31 32 33 33 34 34 32 28 25 23 22 20 18 17 17 17 18 18 19 19 19 19 19 19 19 19 19 20 19 19 18 18 17 18 22 26 29 30 30 28 27 27 26 25 24 24 25 25 26
20 20 21 19 18 18 19 21 21 21 19 21 22 17 16 22 19 15 17 17 14 15 17 19 19 18 17 16 15 13 13 14 13 13 14 13 13 13 13 15 17 18 20 21 23 26 28 30 32 33 33 33 34 34 33 31 27 25 24 22 20 19 18 18 18 19 19 19 20 20 20 19 19 20 20 20 21 21 20 19 18 18 20 24 29 31 32 32 30 28 27 27 27 26 26 27 28
17 18 17 15 15 17 17 17 17 15 14 19 20 12 15 26 21 15 16 11 9 12 15 18 19 18 17 15 14 14 13 13 14 14 14 14 14 14 14 16 17 19 20 22 24 26 28 30 32 34 35 35 35 35 35 33 30 27 26 24 22 20 20 20 20 20 20 20 20 20 21 21 20 20 20 21 21 21 21 20 20 19 20 22 26 30 33 34 33 31 29 28 28 28 29 29 29
16 17 16 16 17 17 17 17 15 15 18 23 26 20 16 21 19 14 16 16 14 15 17 17 17 16 15 14 14 14 13 14 15 14 13 14 15 16 17 18 19 19 21 22 24 27 29 31 33 35 37 38 37 36 36 36 33 30 28 26 24 22 21 21 21 21 21 21 20 20 21 21 21 21 21 21 21 22 22 22 22 22 21 22 24 28 32 34 35 33 31 30 30 29 30 30 30
17 17 17 18 17 14 15 15 14 16 18 22 27 20 11 14 20 19 23 24 14 11 14 13 12 12 12 13 14 15 15 15 15 13 12 13 15 17 18 19 20 20 22 24 25 27 29 31 34 36 37 39 39 38 37 37 36 33 30 28 26 24 22 21 21 21 21 22 21 21 21 21 21 22 22 22 22 22 23 24 24 24 23 23 24 27 30 33 35 35 33 32 32 31 30 31 32
16 16 16 15 13 13 13 13 15 14 12 20 29 22 10 12 23 24 21 17 9 8 10 9 9 10 11 13 14 15 15 14 13 12 12 13 14 16 18 19 19 20 23 25 26 28 30 32 34 35 36 39 41 40 39 38 38 35 32 30 28 26 24 22 21 21 21 22 22 22 22 22 21 22 22 23 23 23 24 24 25 26 26 25 25 26 29 32 34 35 34 34 33 32 32 32 32
15 14 13 11 10 12 13 13 15 10 8 20 26 22 13 8 17 22 16 10 8 6 7 6 7 10 12 12 11 11 12 11 12 13 12 13 15 17 18 19 19 21 24 25 27 30 32 33 35 35 36 38 41 42 41 40 40 37 34 31 29 28 26 24 22 22 22 22 22 23 23 23 22 22 23 23 24 24 24 25 25 26 27 27 26 26 27 30 32 33 34 35 35 34 33 33 33
16 14 13 10 7 9 10 10 9 4 6 13 14 13 14 12 13 17 15 13 10 8 7 6 9 10 10 8 7 9 10 11 13 14 14 14 15 17 19 20 21 23 25 26 28 31 33 34 36 37 37 37 39 41 42 41 42 40 35 32 31 29 28 26 23 23 23 23 23 23 24 24 24 24 24 24 24 25 25 25 26 26 27 27 27 27 27 28 30 32 34 36 36 35 35 35 35
19 16 13 8 3 4 4 3 3 5 9 13 12 9 11 19 21 19 18 21 22 19 11 8 10 9 6 6 7 9 10 12 15 16 16 15 16 18 20 22 23 25 26 27 30 33 34 34 35 37 38 38 39 41 41 41 42 42 38 34 31 30 28 27 25 24 23 24 24 24 24 25 25 25 25 25 26 26 26 26 26 26 27 27 27 27 27 28 30 32 35 36 37 37 37 37 37
21 21 17 10 3 1 3 3 2 6 10 12 15 12 11 18 20 15 16 22 26 23 13 11 12 9 6 7 8 9 10 13 16 17 18 17 17 19 21 23 25 27 27 27 30 33 35 34 34 36 38 39 40 41 42 41 42 44 41 36 33 30 29 28 27 26 24 24 25 24 25 25 26 27 27 27 27 27 27 27 27 27 27 28 28 28 28 28 29 32 34 36 37 38 39 39 39
18 19 20 17 12 6 4 4 2 4 7 7 8 7 5 6 4 1 6 11 13 17 19 19 14 9 7 9 9 10 11 13 16 18 19 17 17 20 22 25 27 28 28 28 29 32 34 34 34 36 37 39 40 41 42 42 42 44 43 40 36 32 30 29 29 27 26 25 26 25 25 26 26 27 28 28 28 28 28 28 28 28 28 28 29 29 29 29 30 31 33 35 37 39 40 41 41
16 18 20 20 20 16 8 6 8 8 9 7 10 12 14 14 14 13 16 21 23 26 29 23 13 11 9 10 10 11 11 12 15 18 20 19 19 22 24 26 27 28 29 29 29 31 33 33 34 35 36 38 40 41 42 43 42 43 44 43 39 34 31 30 30 28 27 26 26 26 26 26 27 28 29 30 30 29 29 29 29 29 29 29 29 30 30 30 31 32 33 35 37 39 41 43 42
16 20 23 22 20 18 11 8 9 9 8 8 12 19 27 27 28 27 23 24 24 20 18 16 12 11 10 10 11 13 14 13 14 18 21 21 22 24 25 26 27 28 29 29 29 30 31 32 33 35 36 37 40 40 40 42 43 43 44 44 42 38 34 32 32 30 28 28 27 27 27 27 28 29 30 31 31 31 31 30 30 30 30 30 30 30 31 31 32 33 34 36 38 39 41 43 43
18 20 22 21 17 16 13 5 4 2 4 7 11 21 25 20 19 22 18 14 14 13 14 17 13 10 10 12 13 15 18 16 14 19 22 24 25 25 25 26 27 28 28 28 28 29 30 31 32 34 35 37 39 39 40 41 43 44 44 44 43 40 36 34 33 32 30 29 28 28 28 28 29 29 30 31 32 32 32 31 31 31 31 32 31 31 31 32 33 33 34 36 38 39 40 42 43
22 21 18 16 13 11 11 7 2 1 2 5 8 16 21 21 20 23 22 18 17 19 19 17 14 13 13 15 17 19 22 22 18 18 22 26 28 27 27 27 28 28 29 29 29 30 30 31 32 34 35 36 37 38 39 40 43 44 45 45 43 41 39 36 34 34 32 30 29 29 29 29 30 30 31 32 32 33 33 33 33 32 32 32 32 33 33 33 33 34 34 35 36 38 39 40 41
24 25 24 20 14 10 11 10 4 3 2 5 5 7 13 21 22 21 21 22 21 20 20 18 16 16 16 19 23 24 25 27 26 22 23 28 31 31 29 29 30 30 31 31 32 32 32 31 32 33 34 35 36 37 39 40 43 44 46 45 42 41 41 37 35 35 33 31 30 29 29 30 30 31 31 32 32 33 34 34 34 33 33 33 32 32 33 33 34 34 34 34 35 36 37 38 38
26 29 29 27 23 16 12 12 12 9 3 1 3 7 9 10 9 9 12 19 23 21 19 17 16 18 21 25 29 28 29 32 32 30 29 29 31 32 31 31 32 33 32 32 33 34 33 31 31 32 33 34 35 37 39 40 43 45 46 45 41 40 41 38 36 35 33 32 30 30 30 31 31 32 32 32 32 33 34 34 34 34 33 33 32 32 32 33 34 34 33 33 33 33 34 35 36
27 28 29 29 29 25 13 7 14 18 13 8 5 10 18 18 11 9 13 22 28 23 18 19 22 26 28 31 33 33 35 37 36 34 30 29 31 32 32 33 34 34 34 33 34 34 34 33 32 32 32 33 35 37 39 40 43 45 45 44 41 40 41 39 36 35 34 32 31 31 31 32 32 33 33 33 33 33 34 34 34 34 34 33 32 32 32 32 33 33 33 32 31 30 30 32 34
Wind_Direction
2 2 3 355 349 343 282 269 128 106 118 106 95 93 85 73 67 43 30 26 18 15 10 8 3 359 1 0 2 2 353 342 339 345 343 319 310 308 305 302 304 305 305 307 309 311 313 316 319 320 320 321 322 322 323 325 327 327 325 320 311 302 292 284 277 271 269 266 263 260 256 256 256 253 254 256 257 259 257 255 256 257 257 256 257 260 263 263 261 262 263 264 263 264 270 272 271
0 2 359 351 345 320 263 254 148 132 134 112 98 99 96 85 83 306 344 3 11 9 3 2 358 354 352 354 356 353 345 337 330 325 312 302 298 298 297 297 299 301 303 305 305 306 308 310 313 316 318 318 320 321 322 323 326 327 327 324 318 309 298 289 282 274 269 265 262 260 255 254 254 252 249 250 253 256 256 256 257 258 257 255 254 256 260 263 263 263 264 266 267 268 274 273 269
0 2 358 352 347 323 253 254 146 145 141 116 103 104 104 110 248 310 354 5 8 2 355 349 342 335 338 345 343 341 340 332 321 307 295 289 285 286 286 290 294 297 300 301 302 303 303 305 307 311 314 316 318 320 321 321 324 326 327 327 323 315 305 295 287 279 272 268 263 260 258 255 253 252 249 248 251 251 252 256 257 257 256 259 262 258 258 262 264 263 264 269 273 274 273 270 268
1 1 3 5 358 347 286 239 150 152 143 121 115 116 122 176 290 331 350 354 354 346 340 332 327 325 329 337 335 336 334 327 318 304 292 282 277 277 280 285 288 291 295 297 298 299 301 303 305 306 308 312 315 316 318 319 322 325 327 328 326 320 312 303 293 285 278 272 268 264 261 259 256 254 252 249 250 248 247 250 254 255 257 262 263 259 260 263 262 264 267 270 272 273 272 269 269
2 360 4 10 7 353 294 174 147 151 140 131 131 134 156 217 298 317 327 333 333 326 321 318 318 319 325 331 330 330 326 322 313 301 292 283 281 279 278 280 282 286 288 292 295 297 299 300 302 303 305 307 309 310 312 314 318 322 325 327 327 322 315 308 300 292 285 278 274 270 266 263 259 257 255 252 251 250 248 248 250 253 256 259 258 259 262 262 263 268 270 271 270 271 272 270 270
2 358 2 9 9 13 291 151 140 144 136 136 141 145 177 241 286 299 309 317 318 314 312 313 313 317 323 325 326 322 317 314 303 295 290 285 283 279 278 279 281 283 284 286 289 293 296 297 299 301 303 304 304 305 307 310 314 317 320 323 325 324 318 310 304 297 290 284 278 274 271 268 264 260 259 257 255 253 252 250 250 251 253 254 255 259 261 261 264 267 267 268 269 269 269 268 269
2 359 3 6 4 18 76 132 133 139 138 138 148 165 204 256 289 299 305 308 307 306 306 311 312 316 320 319 322 317 310 304 295 291 290 285 279 277 278 279 280 281 283 283 282 285 288 291 296 300 302 302 301 301 304 308 310 312 313 317 321 322 319 312 306 300 293 289 283 277 273 271 269 266 262 260 259 257 256 254 252 252 252 253 255 256 258 260 261 262 264 266 267 267 267 267 267
2 2 3 360 359 22 97 119 130 139 148 146 157 186 223 264 284 295 301 304 303 303 305 309 308 311 315 317 321 313 303 297 291 291 289 282 277 276 277 276 276 276 278 279 280 283 286 289 292 297 300 300 298 298 300 304 307 307 306 310 315 318 319 315 309 302 296 291 287 282 277 272 270 268 266 263 262 260 260 258 256 254 253 252 254 256 256 258 259 260 263 264 265 266 267 268 268
1 2 1 356 357 15 108 128 137 139 152 155 175 204 243 268 282 294 298 302 304 305 305 304 303 308 312 316 318 307 298 294 291 291 288 283 280 279 277 275 272 271 272 274 276 281 286 290 292 296 295 293 292 293 296 299 302 304 302 301 305 311 314 315 312 306 299 294 290 287 283 277 272 269 266 265 263 262 262 262 260 257 255 252 253 257 255 255 258 259 260 261 262 264 265 266 268
3 2 360 357 353 345 154 154 152 147 158 179 211 233 259 272 287 295 297 298 300 300 300 301 302 307 311 315 311 300 295 294 293 294 293 293 293 292 289 284 280 277 276 276 278 280 283 286 289 292 292 291 289 290 292 294 297 299 298 295 295 298 304 308 310 309 304 297 292 290 286 283 278 274 270 266 264 263 262 263 263 260 258 255 252 254 253 253 256 256 257 259 260 262 262 263 265
4 2 356 350 335 242 197 171 163 171 185 216 238 252 268 280 290 295 297 297 296 298 300 302 304 307 310 311 304 296 296 299 301 302 303 304 304 303 301 298 294 291 289 287 287 287 287 287 286 285 285 285 286 287 288 290 291 292 291 289 288 288 290 295 300 304 304 301 295 290 288 285 282 279 276 272 266 263 261 261 262 261 261 259 254 251 249 250 255 255 256 259 262 261 260 262 263
3 359 351 342 300 223 198 177 174 196 209 239 260 271 283 292 295 295 298 301 302 306 308 307 309 311 313 314 305 300 302 306 310 311 311 310 309 308 308 307 305 303 301 298 295 293 291 289 288 286 285 283 283 283 284 286 286 285 283 281 282 282 282 284 288 293 297 299 297 291 287 284 282 280 278 277 272 265 261 259 260 260 262 261 257 251 244 244 252 256 256 259 262 261 259 261 263
5 360 350 333 268 239 210 192 186 212 231 260 289 298 299 298 298 303 311 315 315 317 317 314 317 318 319 324 318 315 316 316 319 320 319 317 315 315 315 315 314 313 312 310 307 303 298 292 289 286 284 284 283 282 282 283 282 281 278 275 274 277 279 278 279 283 286 290 294 293 288 284 281 280 278 278 277 272 266 261 260 260 262 262 260 255 247 240 244 251 252 253 255 259 260 261 263
6 359 352 337 250 222 210 224 231 261 273 286 300 301 298 301 308 320 326 322 319 321 322 320 324 324 325 334 334 331 328 324 325 325 325 323 321 321 321 320 320 320 319 319 319 317 313 306 299 292 287 285 284 283 281 280 279 279 277 273 271 271 274 274 274 275 278 280 284 288 288 286 281 278 278 277 277 276 273 268 264 262 262 262 261 259 254 245 243 246 247 248 253 257 258 255 255
5 355 351 354 220 200 208 291 283 277 285 292 297 297 299 313 326 329 327 322 320 323 326 324 327 329 331 338 341 343 340 334 331 328 327 326 325 325 325 326 327 327 327 327 326 325 323 320 315 310 304 298 294 290 285 281 278 276 275 274 272 269 269 271 270 271 273 275 276 278 282 285 283 277 275 275 276 276 275 274 270 266 264 263 262 261 259 255 253 251 246 243 250 253 253 249 247
359 355 356 14 99 164 72 351 269 262 277 285 299 327 319 328 338 330 322 322 324 325 328 328 329 332 334 340 345 348 345 340 338 335 333 332 332 332 331 332 333 334 335 333 331 330 327 326 324 321 318 313 308 302 295 289 283 278 275 273 272 270 269 268 268 269 270 272 273 272 273 278 281 277 272 271 274 275 275 275 274 270 268 265 263 263 263 263 261 259 253 246 248 250 250 250 248
356 360 7 29 69 86 80 91 179 210 255 283 327 21 349 330 337 334 322 323 329 328 331 332 330 333 338 343 347 347 344 341 343 344 342 339 338 339 341 341 341 342 343 341 337 334 330 328 326 324 322 320 316 312 305 299 293 287 282 277 274 272 269 267 266 267 269 270 270 270 268 270 273 273 271 269 269 272 273 274 274 272 269 266 263 263 263 265 265 264 261 257 256 254 253 252 248
357 2 9 32 63 78 88 104 138 158 191 248 321 354 339 331 332 338 327 325 331 329 329 331 329 331 339 344 346 347 347 347 350 350 348 346 347 350 352 352 351 350 350 347 341 337 334 330 327 325 323 322 320 317 311 306 302 296 292 287 283 277 271 267 266 266 268 268 269 268 268 267 267 267 268 270 268 267 270 270 271 270 267 265 264 263 262 263 265 267 266 264 263 261 258 256 254
356 355 1 22 52 76 75 92 120 138 152 180 282 332 333 335 328 338 338 325 324 322 320 322 323 326 330 334 340 348 353 356 359 0 360 359 1 3 4 3 0 357 355 353 349 345 343 338 334 331 327 324 322 317 311 308 304 301 298 295 291 285 276 270 267 267 268 268 268 268 268 266 263 263 265 269 268 265 265 267 268 267 266 265 264 263 263 263 265 266 265 264 263 262 261 260 260
348 344 346 0 22 72 69 85 114 126 137 147 301 314 320 326 321 326 340 327 317 318 318 314 308 302 305 319 340 355 2 7 9 11 12 11 10 10 10 8 5 4 3 1 358 354 351 346 343 340 337 333 328 322 315 309 304 302 300 297 294 291 284 275 270 268 268 269 270 268 267 265 263 263 264 267 266 264 263 263 264 264 263 264 264 263 263 263 264 263 261 261 262 261 261 261 262
342 336 328 328 328 39 68 77 110 122 148 216 286 297 302 309 310 317 330 331 321 323 333 330 295 269 291 337 4 16 21 23 22 20 19 18 16 14 11 8 6 7 6 4 2 359 356 353 350 347 345 341 338 334 327 319 311 304 299 298 296 293 288 280 273 269 268 270 270 267 266 266 265 265 266 266 263 261 262 261 261 262 261 262 263 263 262 261 261 260 261 262 263 263 262 262 262
337 331 321 312 309 326 7 280 291 287 278 270 281 293 294 297 304 313 321 332 336 330 333 337 347 39 53 48 40 36 35 32 30 28 24 23 20 15 12 8 6 5 4 2 1 359 358 357 357 354 350 346 344 341 337 330 322 314 306 300 297 295 291 285 277 271 268 267 266 266 267 269 269 268 266 266 261 258 259 258 257 258 259 259 261 262 261 259 259 260 262 264 263 262 262 262 263
331 327 318 307 305 312 296 269 275 273 274 277 289 297 295 291 298 309 315 330 344 334 329 331 345 15 36 42 42 40 37 32 31 31 27 23 20 14 10 7 5 3 1 359 357 357 357 357 358 358 356 351 348 346 343 339 332 324 316 307 299 294 289 286 281 276 271 268 266 266 268 271 272 271 267 264 261 257 257 257 256 256 256 256 257 259 259 258 258 259 261 262 262 262 263 263 264
324 321 315 308 305 307 300 272 264 262 265 278 293 300 298 290 290 303 308 320 331 325 320 323 332 350 15 24 31 35 33 32 32 30 27 22 18 13 9 7 4 2 2 359 356 356 356 357 357 357 357 355 352 350 348 345 341 333 323 313 304 295 287 283 281 280 279 274 271 269 269 271 272 272 269 264 260 258 258 257 255 255 256 256 255 254 255 255 255 257 258 260 261 262 263 263 263
320 318 312 307 303 302 300 281 264 263 266 275 285 293 296 290 287 293 296 308 319 317 313 316 326 334 356 6 13 23 22 29 32 29 28 22 17 15 10 7 5 5 5 2 359 358 357 356 356 355 354 353 351 350 349 346 345 342 334 324 312 300 290 280 275 276 278 276 272 270 269 269 270 271 271 267 262 259 259 258 256 254 255 257 257 254 252 253 254 255 257 259 261 263 264 264 264
316 313 311 305 301 299 295 283 270 266 268 268 271 279 285 286 285 283 281 293 305 309 309 311 319 323 340 350 359 12 7 15 29 30 30 26 22 17 11 6 6 8 7 5 4 360 357 355 353 352 350 349 348 348 346 344 343 342 340 336 327 312 297 284 274 270 269 269 267 266 266 266 267 268 270 269 265 262 261 260 258 255 253 254 256 255 253 252 252 253 255 258 260 263 264 265 265
308 308 308 304 301 299 292 282 272 268 270 269 265 265 273 278 278 276 276 283 291 299 305 309 313 317 327 334 348 5 355 357 16 31 37 32 27 19 11 8 7 7 5 3 1 357 354 353 352 349 347 346 345 345 344 341 339 337 336 336 334 327 313 296 283 274 268 265 263 262 263 264 265 265 266 267 266 264 262 261 260 258 254 253 255 257 255 253 252 252 253 255 258 261 262 263 264
302 303 303 302 301 298 292 284 276 271 272 274 270 262 262 271 274 274 276 279 283 288 296 303 306 309 315 319 338 1 347 350 6 22 38 37 30 24 17 13 10 8 5 1 358 356 355 353 351 349 348 348 348 347 345 342 338 335 332 330 330 330 325 313 299 285 275 267 263 261 262 264 265 264 262 262 262 262 261 261 260 259 256 254 255 257 256 255 254 252 252 252 255 259 262 262 262
298 298 297 298 298 295 290 285 281 276 277 277 276 271 262 266 271 271 275 279 281 284 288 295 300 300 305 311 325 349 342 345 2 15 29 35 32 27 23 19 15 14 12 7 5 3 0 357 354 352 351 351 351 351 351 349 345 340 334 329 326 325 325 323 314 302 289 276 268 265 264 266 266 264 260 257 257 258 259 258 258 258 257 254 253 255 257 256 256 255 254 253 254 256 259 262 262
294 292 293 295 295 296 292 285 281 280 284 282 284 283 270 263 271 270 270 277 282 286 287 290 294 294 296 302 313 326 331 336 353 9 17 23 27 26 24 21 19 21 20 17 14 10 6 3 1 358 356 354 353 353 353 354 352 348 343 336 329 323 322 323 322 317 304 290 280 272 268 267 267 266 260 255 253 254 255 255 256 257 257 255 253 254 256 257 258 258 256 255 254 254 255 258 260
289 287 289 292 293 297 297 288 283 283 286 286 287 285 274 264 265 267 268 275 283 288 290 289 287 290 290 292 300 310 317 327 340 353 4 12 18 19 17 16 17 20 22 22 18 15 13 12 9 4 0 357 354 353 353 354 354 353 350 345 337 328 322 321 323 323 316 304 289 279 276 273 272 274 267 256 251 251 252 252 253 255 256 255 254 254 256 259 260 261 259 257 254 253 253 254 256
285 283 286 290 291 295 297 291 286 284 283 283 286 282 275 262 243 255 265 272 279 283 288 291 288 287 287 285 287 295 304 315 325 332 342 357 9 9 6 7 11 14 17 21 19 17 18 19 18 13 6 1 356 353 352 352 354 354 352 349 344 337 328 322 322 324 326 320 300 285 283 279 280 287 282 265 251 249 251 251 251 253 255 255 254 254 256 259 261 261 260 257 254 253 253 254 255
283 280 282 286 290 293 294 293 289 286 284 282 280 277 272 261 240 249 261 265 271 274 279 286 289 289 288 283 281 283 290 302 313 317 323 336 355 0 357 359 5 8 9 13 14 14 17 18 19 18 14 8 1 355 351 349 351 353 353 351 348 344 338 329 325 325 329 330 315 294 286 281 281 289 288 276 258 251 251 251 251 251 253 254 253 253 255 259 261 261 260 257 255 253 253 254 256
286 284 283 284 287 289 291 293 291 288 286 282 279 275 271 266 255 251 258 267 268 268 271 274 281 287 288 284 280 279 280 289 305 310 314 321 335 351 352 355 2 6 4 5 8 9 11 12 12 14 15 13 9 1 353 348 348 350 351 351 349 346 343 337 332 328 329 332 324 306 292 281 278 283 288 283 266 255 253 254 254 252 251 252 252 252 253 257 260 259 258 258 256 255 254 254 255
286 283 282 282 283 285 288 292 292 288 285 282 279 277 275 274 267 257 260 273 272 267 268 268 274 281 284 283 280 280 278 280 297 305 310 313 321 341 349 353 360 3 2 1 4 3 2 3 3 4 7 9 10 6 359 351 347 348 349 349 348 347 344 341 337 333 330 329 327 316 304 289 280 284 289 288 276 261 257 257 257 254 249 247 248 249 250 252 254 255 256 258 258 258 257 256 256
279 278 279 279 281 283 287 293 293 290 286 282 279 278 278 278 276 269 266 272 271 267 267 266 269 274 278 280 278 280 280 279 292 301 305 307 314 337 347 352 357 357 357 358 359 357 355 355 355 356 359 2 4 4 3 357 350 348 348 348 347 346 344 342 339 336 332 328 327 323 318 307 294 289 289 289 284 273 268 264 259 254 248 244 244 247 247 248 251 253 255 258 260 260 260 259 257
275 277 277 277 279 281 287 293 291 290 289 286 284 282 278 278 281 277 274 274 271 268 268 268 267 269 273 275 276 278 280 281 289 296 300 303 311 335 345 349 353 351 349 351 353 350 348 349 349 350 354 357 359 360 1 359 355 350 347 347 345 344 342 340 338 337 335 332 328 326 324 318 308 296 289 288 285 279 275 271 265 257 248 242 242 245 245 244 247 251 254 258 261 262 261 259 258
275 275 275 276 277 281 289 293 289 290 290 287 288 284 277 279 282 279 277 277 272 268 269 271 270 269 271 272 272 276 279 281 285 289 296 302 311 329 340 345 347 346 344 344 346 344 343 343 345 348 349 351 354 355 357 358 356 352 348 346 344 342 340 338 337 336 334 333 329 326 322 318 314 305 298 295 292 285 277 271 268 263 253 243 241 245 244 241 243 245 249 255 259 261 261 259 256
274 274 275 276 278 286 292 292 288 289 290 289 289 286 281 281 285 286 282 275 268 265 265 266 269 270 271 272 273 276 279 277 277 285 297 303 308 321 332 337 339 340 339 339 341 341 341 342 343 346 346 347 350 351 353 354 354 352 348 346 343 340 338 336 335 334 332 331 328 325 322 319 319 317 310 305 300 293 284 274 266 260 254 247 244 245 245 242 241 241 243 248 253 257 259 259 258
273 273 276 278 283 290 290 290 289 287 292 292 291 291 287 286 293 294 288 281 269 262 264 265 267 272 272 273 276 280 280 272 271 287 301 304 305 310 318 325 328 332 334 336 338 339 340 342 343 343 343 344 346 348 350 352 352 350 347 344 342 339 336 334 332 331 330 328 326 323 322 322 321 318 311 306 301 295 289 280 269 259 252 248 245 245 246 245 243 242 242 244 248 252 254 256 256
273 274 277 280 285 286 285 289 290 289 291 289 294 298 291 291 298 294 293 296 279 263 267 271 271 273 271 270 276 279 274 266 273 294 304 305 307 306 308 311 315 321 327 332 334 335 337 340 341 340 340 341 342 345 348 349 350 349 346 342 338 337 334 332 329 328 327 326 326 325 322 321 319 315 310 306 303 299 295 290 282 271 258 250 247 246 245 246 246 245 246 246 247 248 249 250 250
272 274 276 279 283 282 284 290 291 294 291 286 301 310 292 293 296 291 299 296 276 267 270 271 272 271 270 273 279 278 269 266 280 299 301 304 311 309 306 304 307 313 319 324 326 329 332 334 338 338 338 339 340 341 344 347 347 346 345 342 337 334 332 331 329 326 325 325 324 324 323 320 317 314 310 306 303 302 300 296 290 282 269 259 253 249 247 248 248 249 249 249 249 248 247 246 246
271 273 275 275 279 281 284 288 288 289 284 283 296 296 285 297 299 303 308 283 261 281 275 271 274 274 274 276 279 278 273 274 288 298 299 306 312 312 310 306 306 310 313 316 318 320 323 326 330 335 337 338 338 340 341 343 345 344 343 342 337 332 330 330 328 326 324 323 322 321 322 320 317 314 310 307 304 301 298 294 289 283 275 267 259 254 252 251 251 251 251 251 251 250 249 248 247
265 270 274 274 280 283 277 276 271 272 279 282 284 279 277 291 293 299 302 285 275 276 269 271 274 273 274 273 275 277 276 281 290 295 299 307 312 315 318 316 313 312 311 311 311 313 316 319 322 327 333 335 336 337 338 339 342 341 340 339 336 331 328 327 326 324 322 321 320 318 318 318 317 315 311 308 305 301 296 292 287 282 276 269 263 257 254 254 255 254 253 252 252 252 252 251 250
263 269 275 277 282 280 269 267 263 273 289 283 276 274 266 274 280 286 294 292 278 250 254 265 265 267 271 270 275 277 278 282 283 285 295 306 313 316 317 316 314 313 311 309 308 310 312 314 318 320 326 331 333 334 335 336 338 339 337 336 335 330 325 323 321 321 319 318 317 316 315 314 314 313 312 309 305 301 297 293 288 284 278 272 266 260 256 255 256 255 254 253 253 253 253 252 251
264 268 274 276 276 272 266 264 266 279 288 272 271 272 258 271 279 283 293 290 252 224 246 251 252 261 266 269 277 280 280 279 276 280 291 300 304 307 309 310 311 311 308 307 306 307 308 309 312 315 320 326 330 331 332 333 335 337 336 332 332 329 323 320 318 318 316 315 314 313 312 311 310 310 310 309 306 303 298 294 289 285 281 275 268 263 260 258 256 255 253 253 253 253 253 252 252
261 263 265 268 271 270 265 262 269 281 272 265 273 271 253 269 285 281 280 259 232 239 244 245 263 265 267 272 275 277 277 275 278 284 290 297 301 304 307 308 309 309 305 305 305 305 305 306 307 309 313 319 326 328 329 330 331 333 334 330 328 327 322 318 316 315 314 312 311 310 310 309 308 308 308 308 306 303 300 296 291 286 282 277 271 266 263 261 259 255 253 253 253 253 252 252 252
255 254 252 257 270 275 268 259 253 248 262 268 277 270 241 232 263 276 263 243 254 273 259 276 286 266 264 271 273 280 283 286 291 298 303 306 308 309 308 306 306 305 303 303 304 303 303 305 304 305 308 313 319 324 325 326 327 329 332 330 326 325 322 317 314 313 312 311 310 309 309 309 308 308 308 307 306 304 301 298 294 289 284 280 275 270 265 263 261 257 255 253 253 253 252 251 251
245 242 236 233 274 311 278 253 226 230 255 263 269 273 238 236 259 275 261 254 270 277 277 304 292 263 254 259 275 292 298 303 307 311 315 314 312 312 308 305 304 300 300 300 300 301 301 302 304 304 305 308 313 319 321 322 322 324 329 330 324 322 321 317 313 311 310 310 309 308 308 308 308 308 307 306 305 304 302 299 296 293 288 283 278 274 269 265 262 260 258 256 254 252 252 251 251
241 238 230 211 171 42 266 260 293 260 260 264 264 266 254 254 270 280 265 264 269 263 264 299 286 257 253 258 273 297 302 309 313 314 316 315 313 311 304 300 297 295 296 295 295 297 298 298 300 302 302 304 309 314 316 317 318 319 324 327 324 320 318 317 313 310 310 309 308 307 306 306 307 307 306 305 304 303 301 299 297 294 289 285 280 275 270 266 264 262 261 259 257 254 252 251 250
252 248 238 225 214 206 222 223 217 264 283 279 255 247 231 222 223 308 285 276 270 265 279 294 280 244 257 274 279 296 303 308 311 312 314 311 304 298 292 289 288 289 290 289 290 293 293 295 296 297 300 302 305 310 312 313 313 314 318 322 323 319 316 315 312 310 309 307 307 306 305 304 305 306 306 305 303 301 300 298 296 293 289 285 280 276 271 267 264 263 262 262 260 257 254 252 251
246 241 230 229 232 233 243 256 256 281 304 276 237 239 245 245 252 267 277 276 276 279 286 291 271 241 263 288 291 300 307 302 296 301 310 312 306 299 292 288 285 284 285 285 286 287 288 291 293 294 297 300 303 307 309 310 310 311 313 317 319 319 315 313 311 309 307 306 305 304 303 303 304 306 306 305 303 301 299 296 294 292 289 285 280 275 271 267 264 262 262 261 261 259 256 254 251
231 226 223 228 234 236 247 273 278 284 293 267 241 248 258 265 273 277 281 284 279 275 284 293 278 258 276 301 306 312 316 304 282 286 304 314 312 306 300 294 289 286 285 283 283 284 285 287 290 292 295 298 301 304 306 307 307 308 310 312 315 316 314 312 310 308 305 304 304 303 302 302 304 305 306 305 303 300 298 296 294 291 289 286 282 278 272 267 264 262 260 259 259 259 257 256 253
228 224 229 233 235 238 240 261 330 305 276 270 241 246 255 257 269 281 285 287 280 274 289 300 289 271 286 304 313 320 323 319 291 278 294 309 312 307 301 298 295 293 290 286 283 282 282 284 288 291 294 297 299 300 303 305 305 305 307 309 311 312 312 311 309 306 305 303 303 302 302 302 303 305 306 305 303 300 297 295 293 291 289 287 285 281 276 271 266 263 260 258 256 256 257 256 254
231 230 231 224 223 226 214 215 302 234 259 294 247 242 248 237 246 277 286 280 279 279 281 289 288 281 287 302 316 319 320 325 315 285 284 301 311 309 304 301 299 298 297 293 289 285 283 283 286 289 291 294 296 298 300 303 303 303 303 305 308 309 308 308 307 305 303 302 301 301 302 302 303 304 305 304 303 300 298 295 292 290 288 286 285 283 281 276 271 266 262 259 256 254 255 256 255
227 227 228 227 229 222 205 205 216 210 244 293 279 255 247 243 254 277 287 286 287 285 281 281 281 279 285 304 315 316 316 320 321 308 293 297 306 309 307 304 301 300 298 295 293 290 288 286 285 286 288 291 293 296 298 300 299 299 301 303 304 305 305 305 305 302 301 300 299 300 301 302 303 304 304 304 302 300 298 296 293 291 288 286 285 283 281 279 276 271 266 262 258 253 252 255 256
230 226 225 228 228 223 226 231 231 239 242 207 294 282 253 248 268 278 280 288 293 292 288 283 279 280 290 306 313 313 314 316 317 316 308 302 304 307 305 302 300 299 297 295 292 291 290 287 284 284 286 288 291 293 295 297 296 296 298 300 301 302 301 302 302 300 298 298 298 299 300 301 303 304 304 303 302 300 299 297 294 292 289 287 285 283 282 280 278 275 269 264 262 257 251 252 255
247 245 242 240 233 225 228 239 232 237 243 237 251 279 272 266 260 249 261 284 293 289 277 280 291 294 296 305 311 312 314 315 315 314 311 305 303 303 300 298 296 294 293 293 292 292 291 289 285 283 284 286 288 290 292 293 292 293 294 296 298 299 298 299 300 299 296 296 297 298 300 302 304 304 305 304 303 301 299 297 294 291 289 287 285 284 283 281 278 275 271 266 263 259 253 251 253